Volver al catálogo

DEAR-5

ActivoRadioaficionadoVLEO
NORAD 67070·PAYLOAD·🇨🇳 China

Lanzado Dec 13, 2025 desde Jiuquan Satellite Launch Center

Loading…

Próximos Pases (próximas 24 horas)

TLE

EnvejeciendoSource: Space-Track

Época: Sep 12, 2026, 13:23 UTC

1 67070U 25296B   26255.55778079  .00004872  00000-0  18600-3 0  9991
2 67070  41.3618 337.5261 0037980  59.3048 301.1511 15.26792809 41565

Sigue DEAR-5 en tiempo real con AllMySat

Download on the App Store